This demonstration page uses our WeatherBlox Daily Observations layout. Learn more.

Left ArrowRight Arrow

39.01783, -85.05884

Hourly Observations for November 20, 2018

Temp ( °F °C ) Dew Point ( °F °C ) Humidity (%) Winds ( mph kmh ) Pressure ( in mb ) Visibility ( mi km ) Precip ( " mm )
12:52 am 00:52 Cloudy 39 3.9 37 2.8 93 93 WNW 7 11 30.06 1018 7 11 0.00 0.03
1:04 am 01:04 Cloudy 39 3.9 37 2.8 93 93 WNW 7 11 30.09 1019 7 11 0.00 0.00
1:31 am 01:31 Cloudy 39 3.9 36 2.2 89 89 WNW 10 17 30.09 1019 8 13 0.00 0.00
1:52 am 01:52 Cloudy 39 3.9 36 2.2 89 89 WNW 13 20 30.07 1018 8 13 0.00 0.00
2:13 am 02:13 Cloudy 39 3.9 35 1.7 86 86 W 12 19 30.09 1019 9 14 0.00 0.00
2:52 am 02:52 Cloudy 38 3.3 35 1.7 89 89 WNW 12 19 30.08 1019 9 14 0.00 0.00
3:52 am 03:52 Cloudy 37 2.8 34 1.1 89 89 W 6 9 30.09 1019 10 16 0.00 0.00
4:52 am 04:52 Cloudy 37 2.8 34 1.1 89 89 WSW 6 9 30.09 1019 10 16 0.00 0.00
5:52 am 05:52 Cloudy 37 2.8 34 1.1 89 89 W 7 11 30.10 1019 9 14 0.00 0.00
6:03 am 06:03 Cloudy 37 2.8 34 1.1 89 89 W 7 11 30.12 1020 8 13 0.00 0.00
6:52 am 06:52 Cloudy 37 2.8 34 1.1 89 89 WSW 8 13 30.11 1020 8 13 0.00 0.00
7:01 am 07:01 Cloudy with Mist and Fog 37 2.8 34 1.1 89 89 W 7 11 30.15 1021 6 10 0.00 0.00
7:15 am 07:15 Cloudy with Light Snow 36 2.2 35 1.7 97 97 WSW 8 13 30.15 1021 4 6 0.00 0.03
7:34 am 07:34 Cloudy with Drizzle 36 2.2 35 1.7 97 97 WSW 7 11 30.15 1021 3 5 0.00 0.03
7:52 am 07:52 Cloudy with Mist and Fog 36 2.2 35 1.7 97 97 W 7 11 30.13 1020 3 5 0.00 0.03
8:52 am 08:52 Cloudy with Mist and Fog 37 2.8 36 2.2 96 96 W 8 13 30.15 1021 3 5 0.00 0.00
9:19 am 09:19 Cloudy with Mist and Fog 38 3.3 36 2.2 93 93 W 8 13 30.18 1022 3 5 0.00 0.00
9:44 am 09:44 Cloudy with Mist and Fog 38 3.3 36 2.2 93 93 W 9 15 30.18 1022 3 5 0.00 0.00
9:52 am 09:52 Cloudy with Mist and Fog 38 3.3 36 2.2 93 93 W 12 19 30.17 1022 3 5 0.00 0.00
10:00 am 10:00 Cloudy with Light Rain 38 3.3 36 2.2 93 93 WNW 14 22 30.21 1023 3 5 0.00 0.03
10:52 am 10:52 Cloudy 38 3.3 34 1.1 86 86 NW 13 20 30.20 1023 7 11 0.00 0.03
11:52 am 11:52 Cloudy 38 3.3 32 0 79 79 WNW 13 20 30.22 1023 8 13 0.00 0.00
12:45 pm 12:45 Cloudy 40 4.4 30 -1.1 68 68 WNW 8 13 30.24 1024 10 16 0.00 0.00
12:52 pm 12:52 Cloudy 39 3.9 31 -0.6 73 73 WNW 10 17 30.20 1023 10 16 0.00 0.00
1:52 pm 13:52 Cloudy 38 3.3 32 0 79 79 WNW 12 19 30.20 1023 8 13 0.00 0.00
2:52 pm 14:52 Cloudy with Haze 37 2.8 32 0 82 82 WNW 12 19 30.21 1023 6 10 0.00 0.00
3:52 pm 15:52 Cloudy 37 2.8 30 -1.1 76 76 WNW 12 19 30.22 1023 7 11 0.00 0.00
4:52 pm 16:52 Cloudy 36 2.2 28 -2.2 73 73 W 7 11 30.23 1024 8 13 0.00 0.00
5:52 pm 17:52 Cloudy 36 2.2 28 -2.2 73 73 W 6 9 30.24 1024 10 16 0.00 0.00
6:52 pm 18:52 Cloudy 36 2.2 26 -3.3 67 67 WNW 7 11 30.24 1024 10 16 0.00 0.00
7:52 pm 19:52 Cloudy 35 1.7 27 -2.8 72 72 W 3 6 30.25 1024 10 16 0.00 0.00
8:52 pm 20:52 Mostly Cloudy 34 1.1 27 -2.8 76 76 WSW 3 6 30.24 1024 9 14 0.00 0.00
9:52 pm 21:52 Mostly Cloudy 34 1.1 28 -2.2 79 79 WSW 6 9 30.24 1024 8 13 0.00 0.00
10:10 pm 22:10 Partly Cloudy 33 0.6 26 -3.3 75 75 SW 7 11 30.27 1025 9 14 0.00 0.00
10:52 pm 22:52 Partly Cloudy 33 0.6 25 -3.9 72 72 WSW 5 7 30.24 1024 10 16 0.00 0.00
11:03 pm 23:03 Mostly Cloudy 33 0.6 25 -3.9 72 72 WSW 5 7 30.30 1026 9 14 0.00 0.00
11:44 pm 23:44 Partly Cloudy 32 0 26 -3.3 79 79 WSW 8 13 30.30 1026 9 14 0.00 0.00
11:52 pm 23:52 Mostly Clear 32 0 26 -3.3 79 79 WSW 8 13 30.24 1024 9 14 0.00 0.00

Powered by AerisWeather